TimeEDT,TemperatureF,Dew PointF,Humidity,Sea Level PressureIn,VisibilityMPH,Wind Direction,Wind SpeedMPH,Gust SpeedMPH,PrecipitationIn,Events,Conditions,WindDirDegrees,DateUTC
12:18 AM,52.9,44.6,73,30.07,10.0,SW,4.6,-,N/A,,Clear,230,2013-10-03 04:18:00
12:37 AM,52.3,44.6,75,30.07,10.0,SW,3.5,-,N/A,,Clear,220,2013-10-03 04:37:00
12:57 AM,51.3,44.1,76,30.06,10.0,Calm,Calm,-,N/A,,Clear,0,2013-10-03 04:57:00
1:18 AM,50.5,43.7,77,30.05,10.0,SW,3.5,-,N/A,,Clear,220,2013-10-03 05:18:00
1:37 AM,49.6,42.6,77,30.05,10.0,Calm,Calm,-,N/A,,Clear,0,2013-10-03 05:37:00
1:57 AM,50.0,41.7,73,30.05,10.0,Calm,Calm,-,N/A,,Clear,0,2013-10-03 05:57:00
2:18 AM,50.0,41.0,71,30.05,10.0,Calm,Calm,-,N/A,,Clear,0,2013-10-03 06:18:00
2:37 AM,49.5,41.0,73,30.05,10.0,NNE,3.5,-,N/A,,Clear,20,2013-10-03 06:37:00
2:57 AM,49.1,40.5,72,30.05,10.0,NNE,3.5,-,N/A,,Clear,20,2013-10-03 06:57:00
3:18 AM,49.3,41.7,75,30.05,10.0,ESE,4.6,-,N/A,,Clear,120,2013-10-03 07:18:00
3:37 AM,49.3,42.3,77,30.05,10.0,ESE,5.8,-,N/A,,Clear,110,2013-10-03 07:37:00
3:58 AM,49.6,42.8,77,30.05,10.0,ESE,4.6,-,N/A,,Clear,110,2013-10-03 07:58:00
4:18 AM,50.0,43.5,78,30.05,10.0,ESE,5.8,-,N/A,,Clear,120,2013-10-03 08:18:00
4:37 AM,51.6,45.1,79,30.05,10.0,SSE,9.2,-,N/A,,Scattered Clouds,150,2013-10-03 08:37:00
4:58 AM,54.7,44.2,68,30.05,10.0,SSE,8.1,-,N/A,,Mostly Cloudy,150,2013-10-03 08:58:00
5:18 AM,55.9,41.2,58,30.05,10.0,SE,8.1,-,N/A,,Overcast,130,2013-10-03 09:18:00
5:37 AM,56.7,39.9,54,30.05,10.0,SE,8.1,-,N/A,,Mostly Cloudy,130,2013-10-03 09:37:00
5:58 AM,56.5,40.8,56,30.06,10.0,SE,8.1,-,N/A,,Scattered Clouds,140,2013-10-03 09:58:00
6:18 AM,56.8,41.0,55,30.05,10.0,SE,9.2,-,N/A,,Clear,140,2013-10-03 10:18:00
6:37 AM,56.3,41.7,58,30.06,10.0,SE,6.9,-,N/A,,Scattered Clouds,140,2013-10-03 10:37:00
6:58 AM,56.5,41.9,58,30.05,10.0,ESE,9.2,-,N/A,,Scattered Clouds,120,2013-10-03 10:58:00
7:18 AM,55.4,43.2,63,30.05,10.0,ESE,8.1,-,N/A,,Scattered Clouds,110,2013-10-03 11:18:00
7:38 AM,53.6,45.9,75,30.04,10.0,East,6.9,-,N/A,,Scattered Clouds,100,2013-10-03 11:38:00
7:58 AM,55.2,47.3,75,30.04,10.0,ESE,8.1,-,N/A,,Scattered Clouds,110,2013-10-03 11:58:00
8:17 AM,56.3,45.1,66,30.03,10.0,ESE,9.2,-,N/A,,Scattered Clouds,120,2013-10-03 12:17:00
8:38 AM,58.1,44.1,60,30.02,10.0,ESE,10.4,17.3,N/A,,Mostly Cloudy,120,2013-10-03 12:38:00
8:58 AM,57.7,46.9,67,30.03,10.0,ESE,6.9,-,N/A,,Mostly Cloudy,110,2013-10-03 12:58:00
9:17 AM,58.3,46.8,66,30.03,10.0,ESE,6.9,-,N/A,,Mostly Cloudy,110,2013-10-03 13:17:00
9:38 AM,58.6,48.0,68,30.02,10.0,East,8.1,-,N/A,,Overcast,100,2013-10-03 13:38:00
9:58 AM,58.5,48.9,71,30.02,10.0,ESE,9.2,16.1,N/A,,Overcast,110,2013-10-03 13:58:00
10:17 AM,58.1,50.0,74,30.02,10.0,ESE,9.2,-,N/A,,Overcast,110,2013-10-03 14:17:00
10:38 AM,59.0,50.5,73,30.01,10.0,ESE,8.1,16.1,N/A,,Overcast,110,2013-10-03 14:38:00
10:58 AM,59.2,52.2,78,30.00,10.0,ESE,10.4,16.1,N/A,,Overcast,110,2013-10-03 14:58:00
11:17 AM,58.5,54.1,86,30.00,10.0,East,11.5,17.3,N/A,,Overcast,90,2013-10-03 15:17:00
11:38 AM,58.5,54.7,87,29.99,10.0,East,15.0,20.7,N/A,,Overcast,90,2013-10-03 15:38:00
11:58 AM,58.1,54.0,86,29.99,10.0,East,11.5,20.7,N/A,,Overcast,90,2013-10-03 15:58:00
12:18 PM,59.4,53.8,82,29.97,10.0,East,15.0,25.3,N/A,,Overcast,90,2013-10-03 16:18:00
12:38 PM,59.0,52.9,80,29.98,10.0,East,13.8,21.9,N/A,,Overcast,90,2013-10-03 16:38:00
12:57 PM,58.6,54.3,86,29.97,7.0,East,15.0,20.7,N/A,Rain,Light Rain,100,2013-10-03 16:57:00
1:18 PM,57.6,54.3,89,29.99,5.0,ESE,12.7,28.8,0.04,Rain,Heavy Rain,120,2013-10-03 17:18:00
1:38 PM,56.3,54.7,94,29.99,1.0,East,11.5,19.6,0.43,Rain,Heavy Rain,90,2013-10-03 17:38:00
1:57 PM,56.3,55.6,97,29.98,3.0,East,11.5,16.1,0.58,Rain,Light Rain,90,2013-10-03 17:57:00
2:18 PM,56.3,55.0,96,29.97,10.0,East,10.4,21.9,0.01,Rain,Light Rain,100,2013-10-03 18:18:00
2:37 PM,55.9,54.5,95,29.97,10.0,East,18.4,25.3,0.01,,Overcast,90,2013-10-03 18:37:00
2:58 PM,55.6,51.8,87,29.97,10.0,East,16.1,24.2,0.01,,Overcast,90,2013-10-03 18:58:00
3:18 PM,55.6,50.4,83,29.96,10.0,East,15.0,24.2,N/A,,Overcast,90,2013-10-03 19:18:00
3:37 PM,55.4,50.0,82,29.97,10.0,East,12.7,21.9,N/A,,Overcast,90,2013-10-03 19:37:00
3:58 PM,55.0,50.0,83,29.96,7.0,East,12.7,21.9,0.02,Rain,Light Rain,90,2013-10-03 19:58:00
4:18 PM,54.5,50.5,86,29.96,7.0,East,15.0,25.3,N/A,Rain,Light Rain,80,2013-10-03 20:18:00
4:37 PM,54.0,50.2,87,29.96,7.0,East,18.4,26.5,0.01,Rain,Light Rain,90,2013-10-03 20:37:00
4:58 PM,54.3,50.0,85,29.95,10.0,East,16.1,29.9,0.01,,Overcast,90,2013-10-03 20:58:00
5:18 PM,54.5,50.0,85,29.96,10.0,East,12.7,21.9,N/A,,Overcast,80,2013-10-03 21:18:00
5:38 PM,55.2,49.5,81,29.96,10.0,East,13.8,23.0,N/A,,Overcast,80,2013-10-03 21:38:00
5:58 PM,55.6,49.5,80,29.96,10.0,East,15.0,24.2,N/A,,Overcast,80,2013-10-03 21:58:00
6:18 PM,55.9,49.3,78,29.96,10.0,East,16.1,23.0,N/A,,Overcast,80,2013-10-03 22:18:00
6:38 PM,56.1,50.0,80,29.96,10.0,East,12.7,23.0,N/A,,Overcast,80,2013-10-03 22:38:00
6:58 PM,56.3,49.8,79,29.97,10.0,East,12.7,20.7,N/A,,Overcast,80,2013-10-03 22:58:00
7:18 PM,56.3,50.2,80,29.97,10.0,East,9.2,21.9,N/A,,Overcast,80,2013-10-03 23:18:00
7:38 PM,56.5,50.4,80,29.97,10.0,East,13.8,20.7,N/A,,Overcast,90,2013-10-03 23:38:00
7:58 PM,56.7,51.3,82,29.97,10.0,East,11.5,17.3,N/A,,Overcast,90,2013-10-03 23:58:00
8:18 PM,56.7,51.6,83,29.98,10.0,East,13.8,19.6,N/A,,Overcast,80,2013-10-04 00:18:00
8:38 PM,56.7,52.5,86,29.98,10.0,East,12.7,20.7,N/A,,Overcast,80,2013-10-04 00:38:00
8:58 PM,56.7,53.2,88,29.99,10.0,East,12.7,19.6,N/A,,Overcast,80,2013-10-04 00:58:00
9:18 PM,56.7,53.8,90,29.98,10.0,East,13.8,19.6,N/A,,Overcast,80,2013-10-04 01:18:00
9:38 PM,56.5,54.0,91,29.98,10.0,East,11.5,17.3,N/A,,Overcast,80,2013-10-04 01:38:00
9:58 PM,56.3,52.9,88,29.98,10.0,East,12.7,19.6,N/A,,Overcast,80,2013-10-04 01:58:00
10:18 PM,55.9,52.3,88,29.98,10.0,East,12.7,19.6,N/A,,Overcast,80,2013-10-04 02:18:00
10:38 PM,55.9,51.8,86,29.98,10.0,East,10.4,19.6,N/A,,Overcast,80,2013-10-04 02:38:00
10:58 PM,56.1,51.6,85,29.98,10.0,East,9.2,19.6,N/A,,Overcast,80,2013-10-04 02:58:00
11:18 PM,56.1,51.4,84,29.98,10.0,East,11.5,16.1,N/A,,Overcast,80,2013-10-04 03:18:00
11:38 PM,56.3,51.3,83,29.98,10.0,East,11.5,19.6,N/A,,Overcast,90,2013-10-04 03:38:00